Location: Chervonnoye
(48.6000°N, 34.4000°E)
Time: 03:02:43
(UTC+00:00)

RS-44 - Visible Passes

Search period start: 27 November 2022 00:00
Search period end: 07 December 2022 00:00
Orbit: 1175 x 1510 km, 82.5° (Epoch: 26 November)

Date Brightness Start Highest point End Pass type
(mag) Time Alt. Az. Time Alt. Az. Time Alt. Az.
27 Nov ? 01:10:39 10° SSE 01:18:21 54° E 01:26:38 10° NNE visible
27 Nov ? 03:04:38 10° SW 03:12:07 40° WNW 03:20:09 10° N visible
27 Nov ? 14:46:38 10° NNW 14:52:37 21° WNW 14:58:34 10° WSW visible
27 Nov ? 23:45:00 10° ESE 23:50:05 18° ENE 23:55:22 10° NE visible
28 Nov ? 01:33:59 10° S 01:42:00 78° E 01:50:39 10° NNE visible
28 Nov ? 03:29:39 10° WSW 03:36:30 28° WNW 03:43:44 10° N visible
28 Nov ? 15:12:05 10° NW 15:15:41 13° WNW 15:19:15 10° W visible
29 Nov ? 00:09:52 21° ESE 00:13:15 28° E 00:20:07 10° NNE visible
29 Nov ? 02:02:39 42° SSW 02:05:49 75° WNW 02:14:33 10° N visible
29 Nov ? 03:55:25 10° W 04:01:04 20° NW 04:07:07 10° N visible
30 Nov ? 00:35:23 39° ESE 00:36:35 41° E 00:44:28 10° NNE visible
30 Nov ? 02:28:05 46° WSW 02:29:50 52° WNW 02:38:21 10° N visible
30 Nov ? 04:21:45 10° WNW 04:25:52 14° NW 04:30:05 10° NNW visible
30 Nov ? 23:07:37 13° ENE 23:08:39 13° ENE 23:12:11 10° NE visible
01 Dec ? 01:00:18 60° E 01:00:18 60° E 01:08:36 10° NNE visible
01 Dec ? 02:52:58 36° W 02:54:03 37° WNW 03:02:01 10° N visible
01 Dec ? 14:28:49 10° NW 14:34:17 18° WNW 14:39:40 10° WSW visible
01 Dec ? 23:32:16 21° ENE 23:32:16 21° ENE 23:37:36 10° NNE visible
02 Dec ? 01:24:55 71° NNE 01:24:55 71° NNE 01:32:35 10° N visible
02 Dec ? 03:17:34 26° WNW 03:18:28 26° WNW 03:25:34 10° N visible
02 Dec ? 14:54:55 10° NW 14:57:16 11° WNW 14:59:37 10° W visible
02 Dec ? 23:56:43 29° ENE 23:56:43 29° ENE 00:02:12 10° NNE visible
03 Dec ? 01:49:22 57° NNW 01:49:22 57° NNW 01:56:27 10° N visible
03 Dec ? 03:42:00 18° WNW 03:43:06 19° NW 03:48:52 10° N visible
04 Dec ? 00:21:02 36° NE 00:21:02 36° NE 00:26:29 10° NNE visible
04 Dec ? 02:13:41 42° NW 02:13:41 42° NW 02:20:12 10° N visible
04 Dec ? 04:06:19 12° NW 04:07:58 13° NW 04:11:40 10° NNW visible
04 Dec ? 22:52:38 14° NE 22:52:38 14° NE 22:54:43 10° NE visible
05 Dec ? 00:45:16 40° NNE 00:45:16 40° NNE 00:50:33 10° NNE visible
05 Dec ? 02:37:54 31° NW 02:37:54 31° NW 02:43:52 10° N visible
05 Dec ? 23:16:47 18° NE 23:16:47 18° NE 23:19:46 10° NNE visible
06 Dec ? 01:09:25 40° N 01:09:25 40° N 01:14:30 10° N visible
06 Dec ? 03:02:03 23° NW 03:02:03 23° NW 03:07:21 10° N visible
06 Dec ? 23:40:53 23° NE 23:40:53 23° NE 23:44:15 10° NNE visible
